Time,TemperatureF,DewpointF,PressureIn,WindDirection,WindDirectionDegrees,WindSpeedMPH,WindSpeedGustMPH,Humidity,HourlyPrecipIn,Conditions,Clouds,dailyrainin,SolarRadiationWatts/m^2,SoftwareType,DateUTC
2013-03-12 00:00:00,58.6,57.5,29.78,SW,217,5.0,10.0,96,0.19,,OVC018,0.00,0.00,VWS V14.00,2013-03-12 04:00:00,
2013-03-12 01:00:00,58.8,57.7,29.77,SW,233,6.0,10.0,96,0.15,,OVC018,0.09,0.00,VWS V14.00,2013-03-12 05:00:00,
2013-03-12 02:00:00,59.1,58.0,29.75,SSW,203,10.0,11.0,96,0.17,,OVC018,0.17,0.00,VWS V14.00,2013-03-12 06:00:00,
2013-03-12 03:00:00,59.2,58.1,29.76,NE,35,3.0,14.0,96,0.11,,OVC018,0.20,0.00,VWS V14.00,2013-03-12 07:00:00,
2013-03-12 04:00:00,54.0,52.9,29.78,NW,319,2.0,8.0,96,0.04,,OVC018,0.21,0.00,VWS V14.00,2013-03-12 08:00:00,
2013-03-12 05:00:00,52.3,51.2,29.80,West,281,8.0,8.0,96,0.02,,OVC018,0.22,0.00,VWS V14.00,2013-03-12 09:00:00,
2013-03-12 06:00:00,48.5,47.4,29.84,West,267,0.0,3.0,96,0.01,,OVC018,0.22,0.00,VWS V14.00,2013-03-12 10:00:00,
2013-03-12 07:00:00,47.1,45.7,29.87,West,276,6.0,6.0,95,0.00,,OVC018,0.22,0.00,VWS V14.00,2013-03-12 11:00:00,
2013-03-12 08:00:00,44.5,42.9,29.93,NE,51,1.0,11.0,94,0.00,,OVC018,0.22,40.00,VWS V14.00,2013-03-12 12:00:00,
2013-03-12 09:00:00,45.2,43.0,29.94,WSW,250,4.0,5.0,92,0.00,,OVC018,0.22,220.00,VWS V14.00,2013-03-12 13:00:00,
2013-03-12 10:00:00,48.5,44.5,29.93,NW,319,3.0,5.0,86,0.00,,OVC018,0.22,592.00,VWS V14.00,2013-03-12 14:00:00,
2013-03-12 11:00:00,52.5,45.2,29.93,NNE,14,5.0,6.0,76,0.00,,OVC018,0.22,742.00,VWS V14.00,2013-03-12 15:00:00,
2013-03-12 12:00:00,56.7,46.3,29.92,North,10,0.0,2.0,68,0.00,,OVC018,0.22,830.00,VWS V14.00,2013-03-12 16:00:00,
2013-03-12 13:00:00,59.5,43.8,29.92,NNW,334,5.0,9.0,56,0.00,,OVC018,0.22,854.00,VWS V14.00,2013-03-12 17:00:00,
2013-03-12 14:00:00,62.6,43.7,29.90,NNE,24,13.0,13.0,50,0.00,,OVC018,0.22,805.00,VWS V14.00,2013-03-12 18:00:00,
2013-03-12 15:00:00,64.9,40.7,29.89,North,352,4.0,9.0,41,0.00,,OVC018,0.22,689.00,VWS V14.00,2013-03-12 19:00:00,
2013-03-12 16:00:00,66.1,37.7,29.90,NNE,16,5.0,10.0,35,0.00,,OVC018,0.22,534.00,VWS V14.00,2013-03-12 20:00:00,
2013-03-12 17:00:00,65.8,37.4,29.91,North,355,2.0,5.0,35,0.00,,OVC018,0.22,323.00,VWS V14.00,2013-03-12 21:00:00,
2013-03-12 18:00:00,62.2,38.2,29.95,NNE,29,0.0,3.0,41,0.00,,OVC018,0.22,28.00,VWS V14.00,2013-03-12 22:00:00,
2013-03-12 19:00:00,58.0,37.9,29.99,NNW,346,0.0,6.0,47,0.00,,OVC018,0.22,0.00,VWS V14.00,2013-03-12 23:00:00,
2013-03-12 20:00:00,54.8,37.5,30.03,NNW,347,7.0,7.0,52,0.00,,OVC018,0.22,0.00,VWS V14.00,2013-03-13 00:00:00,
2013-03-12 21:00:00,52.6,36.0,30.05,North,0,0.0,9.0,53,0.00,,OVC018,0.22,0.00,VWS V14.00,2013-03-13 01:00:00,
2013-03-12 22:00:00,51.2,35.1,30.08,North,9,4.0,7.0,54,0.00,,OVC018,0.22,0.00,VWS V14.00,2013-03-13 02:00:00,
2013-03-12 23:00:00,50.1,35.0,30.09,North,8,3.0,5.0,56,0.00,,OVC018,0.22,0.00,VWS V14.00,2013-03-13 03:00:00,